EHI
0 0 0 0 0 0 0 0 0 0 0 0 0 0 0 0 0 0 0 0 0 1 2 2 1 0 0 0 0 0 0 0 0 0 0 0 0 0 0 0 0 0 0
0 0 0 0 0 0 0 0 0 0 0 0 0 0 0 0 0 0 0 0 0 1 1 1 0 0 0 0 0 0 0 0 0 0 0 0 0 0 0 0 0 0 0
0 0 0 0 0 0 0 0 0 0 0 0 0 0 0 0 0 0 0 0 0 0 0 0 0 0 0 0 0 0 0 0 0 0 0 0 0 0 0 0 0 0 0
0 0 0 0 0 0 0 0 0 0 0 0 0 0 0 0 0 0 0 0 1 1 0 0 0 1 0 0 0 0 0 0 0 0 0 0 0 0 0 0 0 0 0
0 0 0 0 0 0 0 0 0 0 0 0 0 0 0 0 0 0 0 0 1 1 0 0 0 1 0 0 0 0 0 0 0 0 0 0 0 0 0 0 0 0 0
0 0 0 1 0 0 0 0 0 0 0 0 0 0 0 0 0 0 0 0 0 0 0 0 1 1 1 0 0 0 0 0 0 0 0 0 0 0 0 0 0 0 0
0 0 0 0 0 0 0 0 0 0 0 0 0 0 0 0 0 0 0 0 0 0 0 0 1 2 1 0 0 0 0 0 0 1 0 0 0 0 0 0 0 0 0
0 0 0 0 0 0 0 0 0 0 0 1 0 0 0 0 0 0 0 0 0 0 0 0 0 1 1 0 0 0 0 0 0 0 0 0 0 0 0 0 0 0 0
0 0 0 0 0 0 0 0 0 0 0 0 0 0 0 0 0 0 0 0 0 0 1 0 0 0 0 0 0 0 0 0 0 0 0 0 0 0 0 0 0 0 0
0 0 0 0 0 0 0 0 0 0 0 0 0 0 0 0 0 0 0 0 0 0 1 0 0 0 0 0 1 1 0 0 0 0 0 0 0 0 1 2 1 1 1
0 0 0 0 0 0 0 0 0 0 0 0 0 0 0 0 0 0 0 0 0 1 1 1 0 0 0 1 2 2 1 0 0 0 0 0 0 0 1 3 3 3 2
0 0 0 0 0 0 0 0 0 0 0 0 0 0 0 0 0 0 0 0 0 1 1 1 0 0 1 2 3 3 1 0 0 0 1 1 1 0 1 2 3 3 3
0 0 0 0 0 0 0 0 0 0 0 0 0 0 0 0 0 0 0 0 0 0 0 0 0 0 1 2 3 3 2 1 0 0 1 2 1 0 0 1 2 2 1
0 0 0 0 0 0 0 0 0 0 0 0 0 0 0 0 0 0 0 0 0 0 0 0 0 0 0 1 3 3 3 2 1 1 2 2 1 0 0 1 1 1 0
0 0 0 0 0 0 0 0 0 0 0 0 0 0 0 0 0 0 0 0 0 0 0 0 0 0 0 1 2 3 3 3 2 2 3 2 1 0 0 0 0 0 0
0 0 0 0 0 0 0 0 0 0 0 0 0 0 0 0 0 0 0 0 0 0 0 0 0 0 0 1 2 2 2 3 3 3 2 2 1 0 0 0 0 0 0
0 0 0 0 0 0 0 0 0 0 0 0 0 0 0 0 0 0 0 0 0 0 0 0 0 0 1 2 3 3 3 3 3 2 1 1 0 0 0 0 0 0 0
0 0 0 0 0 0 0 0 0 0 0 0 0 0 0 0 0 0 0 0 0 0 0 0 0 0 1 2 2 2 2 2 1 1 0 0 0 0 0 0 0 0 0
0 0 0 0 0 0 0 0 0 0 0 0 0 0 0 0 0 0 0 0 0 0 0 0 0 0 1 1 1 1 1 1 0 0 0 0 0 0 0 0 0 0 0
0 0 0 0 0 1 1 1 1 0 0 0 0 0 0 0 0 0 0 0 0 0 0 0 0 0 0 0 0 0 0 0 0 0 0 0 0 0 0 0 0 0 0
0 0 1 2 2 2 2 2 2 1 0 0 0 0 0 0 0 0 0 0 0 0 0 0 0 0 0 0 0 0 0 0 0 0 0 0 0 0 0 0 0 0 0
0 0 2 3 3 3 3 3 2 1 0 0 0 0 0 0 0 0 0 0 0 0 0 0 0 0 0 0 0 0 0 0 0 0 0 0 0 0 0 0 0 0 0
0 0 1 2 3 3 4 3 2 2 1 0 0 0 0 0 0 0 0 0 0 0 0 0 0 0 0 0 0 0 0 0 0 0 0 0 0 0 0 0 0 0 0
0 0 0 1 2 3 4 4 3 3 3 1 0 0 0 0 0 0 0 0 0 0 0 0 0 0 0 0 0 0 0 0 0 0 0 0 0 0 0 0 0 0 0
0 0 0 0 1 3 5 5 3 3 2 0 0 0 0 0 0 0 0 0 0 0 0 0 0 0 0 0 0 0 0 0 0 0 0 0 0 0 0 0 0 0 0
0 0 0 0 1 4 6 5 2 1 0 0 0 1 1 1 0 0 0 0 0 0 0 0 0 0 0 0 0 0 0 0 0 0 0 0 0 0 0 0 0 0 0
Wind_Speed
3 4 5 3 4 5 5 5 5 6 6 6 6 6 7 7 8 8 8 9 9 9 9 9 9 9 10 10 10 10 10 10 9 9 9 9 9 8 8 6 5 6 9
4 4 5 4 4 5 5 5 5 5 6 6 6 7 7 8 8 8 9 9 9 10 10 10 9 10 9 10 10 10 10 9 9 8 8 8 9 8 7 7 5 6 8
4 4 5 5 5 5 5 6 5 6 6 6 7 7 7 8 8 8 8 9 10 10 10 9 9 9 9 9 10 9 9 9 8 7 4 5 8 8 7 7 7 7 7
5 4 6 6 5 5 5 6 6 6 7 7 7 8 8 8 8 8 8 9 9 10 10 9 9 9 9 9 10 10 9 8 7 3 3 6 6 9 7 7 7 6 7
5 5 7 5 5 5 5 5 5 6 7 7 8 8 8 8 8 8 9 9 9 9 10 10 10 9 9 9 10 9 9 8 6 3 6 6 6 9 8 7 7 6 6
6 6 8 5 6 6 5 4 5 6 6 7 7 8 8 8 8 9 9 9 9 10 10 10 10 9 9 9 10 9 8 6 4 6 6 6 6 9 8 7 6 6 6
6 6 8 7 6 7 7 6 5 6 7 7 7 8 8 8 9 9 9 9 9 10 10 10 10 10 10 9 9 9 7 5 5 6 6 6 8 9 7 7 7 6 6
6 6 7 7 6 7 8 8 8 8 9 8 8 8 8 9 9 9 9 9 9 9 9 10 10 10 10 9 9 8 7 4 6 6 6 7 9 9 8 8 7 7 6
5 5 5 5 6 7 8 9 10 10 10 9 9 8 9 9 9 9 9 9 9 9 9 9 9 10 10 9 9 8 8 5 5 5 6 7 9 8 8 8 7 7 7
5 5 5 5 5 5 8 10 10 10 10 10 9 8 8 8 8 8 9 10 9 9 9 9 9 10 10 10 9 8 5 3 6 6 5 8 9 9 9 9 8 7 7
5 4 4 5 5 5 6 8 8 8 8 6 7 6 3 4 6 6 10 10 9 9 9 9 10 9 9 9 8 5 2 4 6 5 6 10 9 9 9 10 10 9 8
5 4 4 4 5 5 4 4 4 5 4 4 5 5 4 5 5 5 9 9 9 8 9 9 8 6 3 5 6 3 3 6 5 5 7 9 8 9 9 9 10 10 9
4 4 4 4 4 4 4 3 3 3 3 4 4 5 4 4 3 4 3 5 5 5 5 6 4 4 5 4 4 5 6 5 4 5 8 9 8 8 9 10 10 10 9
4 4 4 3 3 4 4 4 3 3 3 3 3 4 3 3 3 4 3 3 3 3 4 4 3 5 6 6 6 6 6 4 5 4 7 10 10 9 9 10 10 10 10
5 4 4 3 3 4 4 3 3 3 3 3 3 3 4 3 3 4 3 3 4 3 3 3 4 5 5 6 6 6 6 6 6 5 6 11 10 10 10 10 10 10 10
5 5 5 4 4 3 4 3 3 3 3 3 3 3 4 3 3 3 4 3 3 3 3 3 5 4 4 5 6 6 5 5 5 5 5 7 10 10 11 11 11 11 10
5 5 5 4 4 3 3 3 3 2 3 2 2 3 4 3 3 3 3 3 3 3 4 3 5 4 4 4 5 5 4 4 4 4 4 4 5 9 10 10 10 10 10
5 5 5 4 4 4 3 3 2 2 2 2 2 2 3 3 3 3 2 3 3 3 3 3 3 3 4 4 4 3 4 3 4 4 4 4 3 4 7 9 9 9 9
6 6 6 5 5 4 3 3 2 2 2 2 2 2 2 2 2 2 2 2 3 2 2 3 3 3 4 4 4 3 3 3 3 3 4 4 4 3 4 7 8 8 8
6 6 6 6 5 4 3 2 2 2 2 2 1 1 1 1 2 2 2 2 3 2 2 3 4 3 3 3 3 3 3 3 3 3 4 4 3 4 4 3 3 5 7
6 6 6 7 6 5 3 3 2 2 2 2 2 2 1 1 2 2 2 2 2 2 3 3 3 3 2 2 2 2 3 3 3 3 3 2 4 4 2 3 2 2 3
6 7 7 7 6 6 4 3 2 2 2 1 2 2 2 2 2 2 2 2 3 2 3 3 3 1 2 1 1 1 2 3 2 2 2 2 2 2 3 3 2 2 2
6 6 6 7 7 6 5 3 3 3 3 3 3 2 3 3 3 3 3 2 3 3 3 4 3 3 2 2 1 2 1 1 1 2 1 1 1 1 1 2 2 2 2
6 6 6 7 7 6 6 5 5 4 3 3 3 3 3 4 4 4 4 3 4 3 3 4 4 3 3 2 1 1 2 1 1 1 2 1 1 0 1 1 1 1 2
4 4 5 6 6 6 6 6 6 5 3 2 3 4 4 3 4 4 4 4 4 3 4 4 4 4 3 3 2 2 1 1 3 2 1 1 1 1 0 1 1 0 1
3 3 4 5 6 6 7 7 7 6 5 4 4 3 3 3 3 5 5 4 4 4 4 4 4 5 4 3 3 3 3 2 2 2 2 2 1 1 1 1 1 1 0
Wind_Direction
70 69 65 52 52 56 60 66 73 74 76 80 80 81 84 86 86 88 90 86 83 84 87 87 86 84 84 86 86 88 89 91 93 93 98 98 97 98 101 106 125 116 108
73 79 79 64 64 61 61 70 75 79 83 88 86 83 87 89 86 84 88 88 85 84 85 88 88 84 83 84 86 88 88 88 86 90 98 103 97 95 97 94 79 92 108
87 88 99 75 66 65 68 70 71 77 82 84 86 86 87 90 90 88 88 87 87 86 86 88 89 87 85 84 86 87 86 87 89 92 107 102 100 93 94 95 95 102 107
87 83 75 69 67 66 68 68 72 76 81 82 84 87 88 90 91 91 89 87 87 87 88 88 89 86 85 85 84 83 83 84 86 106 101 81 87 89 88 87 90 101 104
90 84 81 64 66 65 65 69 73 81 82 82 84 87 86 87 90 91 89 90 89 88 89 88 87 85 85 85 84 83 83 84 90 91 77 76 77 81 79 77 79 87 96
95 89 85 68 65 61 58 67 81 88 87 85 86 88 88 87 87 88 88 89 90 89 87 86 85 84 83 85 87 86 84 84 105 80 77 76 78 80 75 74 79 82 85
93 87 88 74 62 56 52 62 84 95 90 85 87 88 86 85 86 87 86 85 88 87 86 86 86 83 82 83 85 83 79 70 76 77 73 70 69 70 70 69 73 79 81
90 86 91 94 67 57 56 63 81 89 88 86 86 88 86 85 84 84 84 85 87 87 86 88 89 88 84 82 82 81 69 43 81 73 68 68 67 65 66 66 68 72 76
91 85 81 94 104 92 70 66 73 80 83 81 80 85 85 83 83 82 83 84 87 88 88 90 90 87 83 80 80 81 74 47 66 69 69 66 65 61 64 66 67 71 75
99 90 85 83 81 93 98 83 78 78 78 79 77 78 84 94 93 90 88 81 83 86 89 91 91 89 84 80 78 81 81 85 67 69 63 70 67 63 65 66 69 74 75
104 96 92 91 88 84 85 95 99 96 89 101 97 93 106 91 89 94 75 79 80 86 89 90 93 94 98 93 83 81 91 75 73 64 62 65 64 65 69 67 67 70 73
119 107 98 94 95 93 89 96 89 89 90 86 84 88 81 79 73 77 90 82 81 92 99 95 102 122 127 102 105 114 77 76 73 71 67 65 65 67 69 70 68 67 68
118 113 108 103 102 101 101 91 84 82 83 83 80 85 82 86 94 85 95 106 98 102 98 113 126 90 84 79 75 77 71 68 65 67 67 62 66 69 72 73 69 66 67
123 117 113 114 115 107 102 97 94 91 84 82 77 74 76 76 77 80 79 78 81 80 78 79 81 87 84 84 82 80 79 72 69 68 66 59 64 69 74 76 72 69 68
134 134 121 121 118 112 102 100 103 91 84 89 81 80 82 80 85 90 89 82 78 82 88 86 84 84 83 79 74 70 70 72 73 73 77 63 57 63 67 70 70 71 72
146 138 129 131 126 127 122 124 109 98 95 83 82 81 85 87 87 89 90 86 79 79 83 93 96 94 86 81 77 71 67 67 68 72 74 80 69 61 63 65 65 67 69
152 143 131 136 141 132 116 111 108 112 104 94 87 84 89 87 91 90 90 92 87 89 95 91 97 97 95 95 87 77 68 60 62 68 67 65 82 78 68 64 63 63 62
168 153 139 153 159 137 127 127 122 117 105 101 102 94 96 101 96 88 94 98 99 94 95 99 104 102 99 92 83 77 76 71 61 62 72 73 65 76 83 70 62 59 60
178 167 158 157 160 147 138 138 132 125 121 111 109 104 104 107 115 113 105 115 115 113 106 108 102 98 97 89 83 76 68 63 57 56 67 70 74 76 84 90 76 60 56
186 180 167 166 173 156 158 156 137 139 144 133 130 137 122 133 132 127 142 147 133 134 124 119 110 105 100 100 92 82 72 70 64 50 51 62 63 65 66 76 94 87 70
192 193 179 184 181 175 176 183 175 167 170 160 164 161 170 182 166 150 162 156 160 153 148 143 130 129 126 117 123 116 105 76 67 66 54 57 67 57 59 66 59 60 93
198 201 195 194 191 189 190 194 193 183 199 172 180 186 190 195 185 183 185 177 176 168 172 162 157 159 145 184 211 180 157 150 118 86 90 68 58 64 47 49 57 58 40
206 206 206 202 195 193 190 192 186 185 201 190 194 196 199 200 199 203 202 200 191 195 185 182 182 188 190 200 266 290 268 118 121 137 101 106 75 64 59 42 50 50 46
211 211 214 206 202 192 189 198 207 216 218 220 209 199 203 203 204 209 210 211 209 209 199 201 197 200 206 204 199 278 316 353 262 164 169 138 99 50 23 32 41 57 48
205 207 216 209 205 198 200 200 221 231 235 225 215 205 210 202 207 207 215 217 219 217 214 212 207 211 215 224 227 215 214 232 258 257 228 212 198 198 233 274 220 147 70
193 194 204 209 206 202 204 205 217 227 226 220 218 213 214 204 205 205 213 221 221 222 217 213 212 215 227 231 239 236 235 239 242 252 251 239 245 225 219 226 237 203 218